QPF
0.00 0.00 0.02 0.03 0.02 0.01 0.01 0.01 0.01 0.02 0.03 0.02 0.01 0.01 0.01 0.01 0.01 0.01 0.01 0.01 0.02 0.02 0.01 0.01 0.02 0.02 0.02 0.02 0.01 0.01 0.01 0.01 0.00 0.00 0.00 0.00 0.01 0.01 0.01 0.01 0.01 0.01 0.01
0.00 0.00 0.02 0.02 0.03 0.01 0.01 0.01 0.01 0.01 0.02 0.02 0.02 0.02 0.01 0.01 0.01 0.01 0.01 0.01 0.01 0.02 0.01 0.02 0.02 0.02 0.02 0.02 0.01 0.01 0.01 0.01 0.00 0.00 0.00 0.00 0.01 0.01 0.01 0.00 0.00 0.00 0.01
0.00 0.00 0.02 0.02 0.02 0.02 0.01 0.01 0.01 0.01 0.01 0.02 0.02 0.02 0.02 0.01 0.01 0.01 0.01 0.01 0.01 0.01 0.02 0.03 0.02 0.02 0.02 0.03 0.02 0.01 0.01 0.01 0.00 0.00 0.00 0.00 0.01 0.02 0.01 0.01 0.01 0.01 0.01
0.00 0.01 0.02 0.02 0.02 0.02 0.02 0.01 0.01 0.01 0.01 0.01 0.02 0.02 0.03 0.03 0.01 0.01 0.00 0.01 0.01 0.01 0.02 0.03 0.02 0.01 0.01 0.02 0.01 0.01 0.01 0.00 0.00 0.00 0.00 0.00 0.01 0.02 0.02 0.02 0.01 0.01 0.01
0.01 0.01 0.02 0.04 0.04 0.03 0.02 0.02 0.01 0.01 0.01 0.01 0.01 0.01 0.02 0.03 0.03 0.01 0.01 0.01 0.01 0.02 0.03 0.04 0.02 0.01 0.01 0.01 0.01 0.01 0.00 0.00 0.00 0.00 0.00 0.00 0.00 0.02 0.02 0.01 0.01 0.01 0.02
0.01 0.02 0.03 0.05 0.05 0.04 0.03 0.02 0.02 0.01 0.01 0.01 0.01 0.01 0.01 0.02 0.03 0.03 0.02 0.01 0.01 0.02 0.03 0.03 0.01 0.01 0.00 0.00 0.00 0.00 0.00 0.00 0.00 0.00 0.00 0.00 0.01 0.02 0.01 0.01 0.01 0.01 0.02
0.02 0.03 0.04 0.07 0.07 0.05 0.03 0.03 0.02 0.01 0.01 0.01 0.01 0.01 0.01 0.01 0.02 0.03 0.03 0.01 0.01 0.01 0.02 0.02 0.01 0.01 0.00 0.00 0.00 0.00 0.00 0.00 0.00 0.00 0.00 0.00 0.01 0.02 0.02 0.03 0.02 0.02 0.02
0.04 0.04 0.05 0.08 0.09 0.08 0.05 0.03 0.03 0.02 0.01 0.01 0.01 0.01 0.02 0.02 0.02 0.02 0.02 0.02 0.02 0.01 0.01 0.01 0.01 0.01 0.01 0.01 0.01 0.00 0.00 0.00 0.00 0.00 0.00 0.00 0.01 0.02 0.02 0.03 0.02 0.01 0.01
0.07 0.07 0.07 0.07 0.09 0.09 0.07 0.04 0.03 0.02 0.02 0.02 0.01 0.01 0.01 0.02 0.02 0.01 0.01 0.02 0.03 0.02 0.01 0.01 0.01 0.01 0.01 0.01 0.00 0.00 0.00 0.00 0.00 0.00 0.00 0.00 0.01 0.02 0.02 0.02 0.01 0.01 0.01
0.08 0.10 0.10 0.08 0.08 0.08 0.07 0.05 0.03 0.03 0.03 0.02 0.01 0.01 0.01 0.01 0.02 0.01 0.01 0.01 0.03 0.03 0.03 0.02 0.01 0.01 0.01 0.01 0.01 0.00 0.00 0.00 0.00 0.00 0.00 0.00 0.01 0.01 0.01 0.01 0.01 0.01 0.01
0.11 0.11 0.13 0.11 0.08 0.08 0.08 0.06 0.04 0.03 0.03 0.02 0.01 0.01 0.00 0.00 0.01 0.01 0.01 0.01 0.01 0.02 0.03 0.03 0.02 0.02 0.02 0.01 0.01 0.00 0.00 0.00 0.00 0.00 0.00 0.01 0.01 0.01 0.01 0.01 0.01 0.01 0.01
0.17 0.16 0.14 0.12 0.09 0.08 0.09 0.06 0.04 0.04 0.04 0.03 0.01 0.01 0.00 0.00 0.00 0.00 0.01 0.01 0.01 0.01 0.02 0.02 0.02 0.02 0.02 0.01 0.01 0.01 0.00 0.00 0.00 0.00 0.01 0.01 0.01 0.01 0.01 0.01 0.01 0.01 0.01
0.14 0.18 0.19 0.17 0.12 0.09 0.07 0.06 0.04 0.05 0.05 0.03 0.02 0.01 0.01 0.00 0.00 0.01 0.01 0.01 0.01 0.02 0.01 0.01 0.01 0.02 0.02 0.01 0.01 0.01 0.00 0.00 0.00 0.00 0.01 0.01 0.01 0.02 0.02 0.01 0.01 0.01 0.01
0.08 0.16 0.20 0.23 0.19 0.12 0.08 0.05 0.04 0.04 0.05 0.04 0.03 0.01 0.01 0.00 0.01 0.01 0.01 0.01 0.01 0.01 0.01 0.01 0.01 0.01 0.01 0.01 0.01 0.01 0.00 0.00 0.00 0.00 0.00 0.00 0.01 0.02 0.02 0.02 0.02 0.02 0.01
0.05 0.16 0.19 0.22 0.24 0.21 0.12 0.05 0.04 0.04 0.05 0.06 0.04 0.02 0.01 0.01 0.01 0.01 0.02 0.02 0.01 0.01 0.01 0.02 0.01 0.01 0.01 0.01 0.01 0.01 0.00 0.00 0.01 0.00 0.00 0.00 0.01 0.02 0.02 0.02 0.02 0.02 0.02
0.03 0.13 0.22 0.25 0.20 0.19 0.16 0.08 0.04 0.05 0.05 0.06 0.06 0.04 0.02 0.02 0.01 0.01 0.02 0.03 0.02 0.02 0.02 0.02 0.02 0.01 0.01 0.01 0.01 0.01 0.01 0.01 0.01 0.01 0.01 0.00 0.01 0.01 0.02 0.03 0.02 0.02 0.02
0.02 0.07 0.17 0.23 0.19 0.16 0.15 0.09 0.04 0.04 0.06 0.08 0.07 0.06 0.03 0.02 0.02 0.01 0.01 0.02 0.02 0.02 0.03 0.03 0.03 0.02 0.02 0.01 0.01 0.01 0.01 0.00 0.01 0.01 0.01 0.00 0.01 0.01 0.02 0.02 0.02 0.02 0.02
0.02 0.03 0.12 0.18 0.17 0.16 0.13 0.09 0.04 0.03 0.05 0.07 0.07 0.07 0.04 0.02 0.02 0.01 0.01 0.02 0.02 0.03 0.05 0.04 0.03 0.03 0.02 0.02 0.01 0.01 0.01 0.01 0.01 0.01 0.01 0.00 0.01 0.01 0.01 0.02 0.02 0.02 0.02
0.02 0.02 0.06 0.12 0.12 0.12 0.11 0.08 0.05 0.03 0.04 0.06 0.06 0.05 0.05 0.03 0.02 0.01 0.01 0.02 0.03 0.03 0.05 0.06 0.04 0.04 0.03 0.03 0.02 0.01 0.01 0.01 0.01 0.01 0.01 0.00 0.00 0.01 0.01 0.02 0.02 0.01 0.02
0.02 0.02 0.04 0.07 0.09 0.11 0.10 0.07 0.04 0.03 0.03 0.04 0.05 0.04 0.04 0.03 0.02 0.02 0.01 0.01 0.02 0.03 0.04 0.05 0.05 0.04 0.04 0.04 0.03 0.02 0.02 0.01 0.01 0.02 0.02 0.01 0.01 0.01 0.01 0.02 0.02 0.01 0.01
0.02 0.02 0.03 0.04 0.05 0.07 0.08 0.06 0.04 0.02 0.02 0.02 0.02 0.03 0.03 0.02 0.01 0.01 0.01 0.01 0.02 0.03 0.04 0.05 0.05 0.05 0.05 0.04 0.04 0.03 0.03 0.03 0.02 0.02 0.02 0.02 0.01 0.01 0.01 0.01 0.02 0.01 0.01
0.01 0.02 0.03 0.04 0.04 0.04 0.04 0.04 0.03 0.02 0.02 0.02 0.02 0.02 0.03 0.02 0.01 0.01 0.01 0.01 0.01 0.01 0.02 0.04 0.06 0.07 0.06 0.05 0.04 0.04 0.03 0.03 0.03 0.03 0.03 0.02 0.02 0.02 0.01 0.01 0.01 0.02 0.01
0.02 0.03 0.04 0.03 0.03 0.03 0.03 0.02 0.01 0.02 0.03 0.03 0.02 0.02 0.02 0.02 0.02 0.01 0.01 0.01 0.01 0.01 0.01 0.02 0.05 0.07 0.08 0.08 0.05 0.04 0.04 0.03 0.03 0.03 0.03 0.03 0.02 0.01 0.01 0.01 0.01 0.02 0.02
0.02 0.03 0.04 0.04 0.03 0.03 0.03 0.02 0.01 0.01 0.02 0.03 0.03 0.02 0.02 0.02 0.02 0.02 0.02 0.01 0.01 0.01 0.01 0.02 0.05 0.08 0.09 0.10 0.10 0.07 0.04 0.03 0.02 0.02 0.02 0.02 0.02 0.01 0.01 0.01 0.00 0.01 0.02
0.03 0.03 0.04 0.05 0.03 0.03 0.03 0.02 0.01 0.01 0.02 0.03 0.03 0.02 0.02 0.02 0.02 0.02 0.02 0.01 0.01 0.01 0.01 0.03 0.05 0.08 0.11 0.11 0.11 0.10 0.07 0.04 0.03 0.02 0.02 0.03 0.02 0.01 0.01 0.00 0.00 0.00 0.01
0.03 0.03 0.03 0.04 0.04 0.03 0.03 0.02 0.01 0.01 0.01 0.02 0.03 0.02 0.02 0.02 0.01 0.01 0.01 0.01 0.02 0.02 0.02 0.03 0.05 0.06 0.07 0.09 0.10 0.10 0.10 0.08 0.05 0.03 0.02 0.02 0.02 0.02 0.01 0.01 0.00 0.00 0.00
MSLP
1011.48 1011.12 1011.00 1011.13 1011.43 1011.84 1012.26 1012.62 1012.89 1013.06 1013.17 1013.26 1013.40 1013.63 1013.96 1014.37 1014.80 1015.22 1015.57 1015.82 1015.97 1016.06 1016.12 1016.21 1016.34 1016.53 1016.76 1017.01 1017.24 1017.42 1017.54 1017.60 1017.62 1017.64 1017.66 1017.72 1017.79 1017.86 1017.93 1017.97 1017.97 1017.95 1017.92
1011.51 1011.17 1011.07 1011.21 1011.54 1011.97 1012.42 1012.83 1013.13 1013.34 1013.47 1013.58 1013.74 1013.98 1014.31 1014.71 1015.14 1015.54 1015.87 1016.10 1016.22 1016.28 1016.31 1016.36 1016.45 1016.61 1016.83 1017.06 1017.28 1017.47 1017.60 1017.68 1017.73 1017.76 1017.80 1017.87 1017.94 1018.02 1018.09 1018.14 1018.16 1018.15 1018.13
1011.45 1011.13 1011.05 1011.22 1011.59 1012.07 1012.58 1013.05 1013.41 1013.67 1013.84 1013.98 1014.15 1014.37 1014.67 1015.04 1015.42 1015.78 1016.07 1016.27 1016.37 1016.40 1016.41 1016.44 1016.52 1016.66 1016.86 1017.08 1017.31 1017.50 1017.65 1017.76 1017.83 1017.89 1017.95 1018.03 1018.12 1018.20 1018.28 1018.34 1018.37 1018.39 1018.40
1011.31 1011.02 1010.97 1011.18 1011.59 1012.14 1012.72 1013.25 1013.69 1014.01 1014.23 1014.38 1014.54 1014.73 1014.99 1015.29 1015.61 1015.92 1016.16 1016.32 1016.41 1016.44 1016.45 1016.48 1016.57 1016.71 1016.91 1017.14 1017.38 1017.58 1017.76 1017.89 1017.99 1018.07 1018.15 1018.24 1018.33 1018.43 1018.52 1018.59 1018.65 1018.69 1018.73
1011.15 1010.89 1010.88 1011.12 1011.57 1012.17 1012.81 1013.41 1013.91 1014.28 1014.54 1014.72 1014.87 1015.03 1015.23 1015.47 1015.73 1015.98 1016.18 1016.32 1016.40 1016.45 1016.49 1016.55 1016.66 1016.83 1017.05 1017.30 1017.54 1017.77 1017.96 1018.11 1018.23 1018.33 1018.43 1018.52 1018.62 1018.72 1018.82 1018.90 1018.98 1019.05 1019.12
1011.05 1010.82 1010.82 1011.08 1011.56 1012.17 1012.84 1013.48 1014.02 1014.44 1014.74 1014.95 1015.10 1015.25 1015.42 1015.61 1015.82 1016.02 1016.20 1016.33 1016.43 1016.50 1016.58 1016.69 1016.85 1017.06 1017.31 1017.58 1017.84 1018.09 1018.29 1018.46 1018.59 1018.70 1018.80 1018.89 1018.99 1019.09 1019.19 1019.29 1019.38 1019.48 1019.57
1011.06 1010.85 1010.86 1011.11 1011.57 1012.16 1012.82 1013.47 1014.03 1014.49 1014.83 1015.07 1015.26 1015.43 1015.59 1015.77 1015.96 1016.13 1016.29 1016.43 1016.55 1016.66 1016.79 1016.95 1017.16 1017.41 1017.70 1017.99 1018.28 1018.54 1018.75 1018.92 1019.06 1019.17 1019.26 1019.35 1019.44 1019.54 1019.64 1019.73 1019.84 1019.94 1020.05
1011.20 1011.00 1011.00 1011.22 1011.63 1012.17 1012.78 1013.40 1013.96 1014.44 1014.83 1015.13 1015.38 1015.60 1015.80 1016.00 1016.19 1016.37 1016.53 1016.67 1016.81 1016.95 1017.12 1017.32 1017.58 1017.87 1018.19 1018.51 1018.82 1019.08 1019.30 1019.47 1019.60 1019.70 1019.79 1019.87 1019.96 1020.04 1020.13 1020.23 1020.33 1020.44 1020.55
1011.43 1011.25 1011.24 1011.41 1011.74 1012.20 1012.74 1013.29 1013.84 1014.34 1014.78 1015.17 1015.51 1015.81 1016.09 1016.34 1016.56 1016.75 1016.91 1017.06 1017.20 1017.36 1017.56 1017.79 1018.08 1018.40 1018.75 1019.09 1019.40 1019.67 1019.88 1020.04 1020.17 1020.26 1020.34 1020.42 1020.49 1020.57 1020.65 1020.74 1020.84 1020.94 1021.04
1011.70 1011.55 1011.52 1011.64 1011.90 1012.26 1012.70 1013.20 1013.72 1014.23 1014.73 1015.21 1015.66 1016.08 1016.44 1016.76 1017.03 1017.24 1017.41 1017.55 1017.69 1017.85 1018.05 1018.30 1018.61 1018.96 1019.32 1019.67 1019.98 1020.25 1020.46 1020.61 1020.72 1020.80 1020.87 1020.94 1021.01 1021.08 1021.16 1021.25 1021.33 1021.42 1021.51
1011.91 1011.80 1011.78 1011.87 1012.05 1012.33 1012.69 1013.12 1013.61 1014.14 1014.70 1015.27 1015.83 1016.36 1016.83 1017.22 1017.53 1017.77 1017.94 1018.07 1018.20 1018.35 1018.55 1018.81 1019.13 1019.49 1019.86 1020.22 1020.54 1020.80 1021.00 1021.14 1021.23 1021.30 1021.36 1021.42 1021.49 1021.56 1021.64 1021.72 1021.80 1021.88 1021.94
1011.97 1011.93 1011.94 1012.01 1012.15 1012.37 1012.66 1013.05 1013.52 1014.07 1014.68 1015.33 1015.99 1016.61 1017.17 1017.63 1017.99 1018.24 1018.42 1018.54 1018.66 1018.81 1019.02 1019.29 1019.62 1020.00 1020.39 1020.76 1021.07 1021.33 1021.51 1021.63 1021.71 1021.76 1021.80 1021.86 1021.92 1022.00 1022.08 1022.17 1022.24 1022.31 1022.36
1011.83 1011.87 1011.93 1012.02 1012.16 1012.35 1012.61 1012.97 1013.43 1014.00 1014.66 1015.37 1016.10 1016.79 1017.41 1017.92 1018.32 1018.60 1018.78 1018.92 1019.05 1019.21 1019.44 1019.74 1020.10 1020.51 1020.92 1021.30 1021.62 1021.86 1022.02 1022.12 1022.17 1022.20 1022.23 1022.27 1022.33 1022.41 1022.49 1022.58 1022.66 1022.72 1022.76
1011.46 1011.59 1011.73 1011.87 1012.03 1012.24 1012.51 1012.87 1013.34 1013.93 1014.61 1015.36 1016.12 1016.86 1017.51 1018.06 1018.48 1018.78 1019.00 1019.17 1019.34 1019.55 1019.82 1020.18 1020.59 1021.04 1021.48 1021.87 1022.20 1022.43 1022.58 1022.65 1022.67 1022.67 1022.67 1022.69 1022.74 1022.81 1022.90 1022.99 1023.07 1023.12 1023.16
1010.92 1011.12 1011.33 1011.55 1011.78 1012.04 1012.35 1012.75 1013.25 1013.85 1014.55 1015.30 1016.07 1016.81 1017.47 1018.03 1018.47 1018.81 1019.08 1019.31 1019.55 1019.83 1020.19 1020.62 1021.10 1021.60 1022.08 1022.51 1022.84 1023.07 1023.20 1023.25 1023.24 1023.20 1023.17 1023.17 1023.20 1023.26 1023.33 1023.42 1023.50 1023.55 1023.58
1010.25 1010.52 1010.81 1011.11 1011.42 1011.76 1012.16 1012.62 1013.16 1013.79 1014.48 1015.23 1015.97 1016.68 1017.32 1017.87 1018.33 1018.71 1019.04 1019.35 1019.69 1020.08 1020.54 1021.07 1021.63 1022.20 1022.73 1023.18 1023.53 1023.76 1023.88 1023.91 1023.88 1023.82 1023.76 1023.73 1023.73 1023.77 1023.83 1023.90 1023.97 1024.01 1024.04
1009.56 1009.86 1010.21 1010.60 1011.02 1011.47 1011.96 1012.51 1013.11 1013.76 1014.46 1015.16 1015.86 1016.51 1017.11 1017.64 1018.11 1018.53 1018.93 1019.34 1019.79 1020.30 1020.87 1021.48 1022.13 1022.76 1023.34 1023.83 1024.20 1024.45 1024.58 1024.61 1024.57 1024.50 1024.42 1024.37 1024.35 1024.36 1024.40 1024.45 1024.49 1024.52 1024.52
1008.90 1009.23 1009.63 1010.10 1010.62 1011.20 1011.81 1012.45 1013.12 1013.81 1014.49 1015.15 1015.78 1016.36 1016.91 1017.40 1017.87 1018.32 1018.79 1019.29 1019.84 1020.45 1021.12 1021.82 1022.53 1023.22 1023.84 1024.36 1024.77 1025.05 1025.21 1025.27 1025.26 1025.20 1025.13 1025.07 1025.03 1025.02 1025.03 1025.05 1025.06 1025.06 1025.04
1008.32 1008.66 1009.10 1009.65 1010.28 1010.98 1011.72 1012.47 1013.21 1013.92 1014.58 1015.20 1015.75 1016.26 1016.74 1017.19 1017.64 1018.12 1018.63 1019.20 1019.83 1020.52 1021.25 1022.01 1022.77 1023.49 1024.14 1024.70 1025.15 1025.48 1025.70 1025.82 1025.85 1025.84 1025.80 1025.76 1025.73 1025.70 1025.69 1025.68 1025.66 1025.63 1025.57
1007.83 1008.18 1008.66 1009.28 1010.02 1010.83 1011.68 1012.53 1013.34 1014.08 1014.73 1015.29 1015.78 1016.20 1016.60 1017.00 1017.43 1017.91 1018.45 1019.06 1019.73 1020.46 1021.23 1022.01 1022.78 1023.51 1024.19 1024.78 1025.28 1025.67 1025.97 1026.17 1026.30 1026.36 1026.38 1026.38 1026.36 1026.35 1026.32 1026.29 1026.25 1026.18 1026.10
1007.41 1007.77 1008.30 1008.99 1009.81 1010.72 1011.68 1012.61 1013.48 1014.24 1014.88 1015.39 1015.81 1016.16 1016.49 1016.84 1017.23 1017.70 1018.24 1018.86 1019.55 1020.28 1021.04 1021.81 1022.56 1023.29 1023.97 1024.59 1025.13 1025.60 1025.99 1026.30 1026.53 1026.69 1026.79 1026.85 1026.88 1026.88 1026.87 1026.83 1026.77 1026.70 1026.60
1007.03 1007.41 1007.98 1008.73 1009.62 1010.62 1011.65 1012.64 1013.55 1014.33 1014.95 1015.43 1015.79 1016.09 1016.37 1016.67 1017.04 1017.48 1018.01 1018.62 1019.29 1020.00 1020.72 1021.45 1022.17 1022.86 1023.53 1024.16 1024.76 1025.30 1025.78 1026.19 1026.53 1026.80 1026.99 1027.13 1027.21 1027.25 1027.26 1027.24 1027.20 1027.12 1027.03
1006.66 1007.08 1007.68 1008.47 1009.41 1010.46 1011.53 1012.57 1013.50 1014.28 1014.89 1015.35 1015.68 1015.94 1016.19 1016.47 1016.82 1017.25 1017.77 1018.36 1019.00 1019.66 1020.33 1021.01 1021.67 1022.32 1022.97 1023.61 1024.23 1024.83 1025.39 1025.89 1026.33 1026.68 1026.97 1027.17 1027.32 1027.41 1027.46 1027.48 1027.47 1027.43 1027.37
1006.32 1006.76 1007.38 1008.19 1009.15 1010.20 1011.29 1012.34 1013.27 1014.05 1014.66 1015.11 1015.44 1015.70 1015.96 1016.24 1016.60 1017.03 1017.54 1018.11 1018.72 1019.34 1019.96 1020.57 1021.18 1021.79 1022.40 1023.03 1023.66 1024.28 1024.89 1025.45 1025.96 1026.38 1026.73 1027.00 1027.21 1027.36 1027.46 1027.53 1027.58 1027.60 1027.59
1006.02 1006.47 1007.08 1007.88 1008.82 1009.85 1010.92 1011.94 1012.87 1013.64 1014.26 1014.72 1015.08 1015.37 1015.66 1015.98 1016.37 1016.82 1017.35 1017.91 1018.50 1019.08 1019.66 1020.22 1020.78 1021.33 1021.91 1022.51 1023.13 1023.76 1024.37 1024.96 1025.49 1025.95 1026.34 1026.66 1026.91 1027.12 1027.28 1027.42 1027.53 1027.63 1027.68
1005.81 1006.24 1006.82 1007.56 1008.45 1009.43 1010.44 1011.43 1012.32 1013.09 1013.72 1014.22 1014.63 1014.98 1015.33 1015.72 1016.15 1016.65 1017.20 1017.77 1018.35 1018.91 1019.45 1019.98 1020.49 1021.01 1021.55 1022.11 1022.70 1023.30 1023.89 1024.46 1024.99 1025.45 1025.85 1026.20 1026.49 1026.74 1026.97 1027.18 1027.37 1027.53 1027.67
Thickness
5716 5719 5720 5719 5719 5718 5718 5719 5719 5719 5720 5720 5720 5720 5721 5721 5721 5721 5720 5721 5721 5721 5721 5721 5721 5721 5721 5720 5720 5719 5719 5718 5718 5717 5717 5717 5716 5716 5715 5715 5714 5714 5713
5715 5716 5716 5716 5715 5715 5715 5715 5715 5716 5716 5716 5716 5717 5717 5717 5717 5717 5717 5717 5717 5717 5717 5718 5718 5717 5717 5717 5716 5716 5716 5715 5714 5714 5714 5713 5713 5713 5712 5711 5711 5710 5710
5711 5712 5712 5712 5711 5711 5711 5711 5711 5711 5712 5712 5712 5713 5713 5713 5713 5713 5713 5713 5713 5713 5713 5714 5714 5714 5713 5713 5713 5713 5712 5712 5711 5711 5710 5710 5710 5710 5709 5708 5708 5707 5707
5707 5707 5708 5708 5707 5707 5706 5706 5707 5707 5707 5708 5708 5708 5709 5709 5709 5709 5709 5709 5709 5709 5709 5709 5710 5709 5709 5709 5709 5709 5708 5708 5707 5707 5707 5707 5707 5706 5706 5705 5705 5704 5703
5701 5702 5703 5703 5703 5702 5702 5702 5702 5702 5703 5703 5703 5704 5704 5704 5704 5705 5705 5705 5705 5705 5705 5705 5705 5705 5705 5705 5705 5705 5704 5704 5703 5703 5703 5703 5703 5703 5702 5702 5701 5700 5699
5695 5696 5697 5698 5697 5697 5697 5697 5697 5697 5698 5698 5698 5699 5699 5700 5700 5700 5700 5700 5700 5700 5700 5701 5701 5701 5701 5701 5701 5701 5700 5700 5699 5699 5699 5699 5700 5699 5699 5698 5697 5696 5695
5688 5690 5691 5692 5692 5692 5692 5692 5692 5692 5693 5693 5693 5694 5694 5695 5695 5695 5695 5695 5695 5696 5696 5696 5696 5697 5697 5697 5697 5697 5696 5695 5695 5695 5694 5695 5695 5695 5695 5694 5693 5692 5691
5682 5683 5684 5685 5686 5686 5686 5686 5686 5686 5687 5687 5688 5688 5688 5689 5689 5689 5689 5690 5690 5691 5691 5691 5692 5692 5692 5692 5692 5692 5692 5691 5690 5690 5690 5690 5691 5691 5690 5689 5688 5688 5687
5674 5675 5677 5678 5679 5679 5680 5680 5680 5680 5681 5681 5682 5682 5683 5683 5683 5684 5684 5684 5685 5685 5685 5686 5686 5687 5687 5687 5687 5687 5687 5686 5686 5685 5685 5685 5686 5686 5685 5684 5684 5683 5682
5667 5668 5669 5670 5671 5672 5673 5674 5674 5674 5674 5675 5675 5676 5676 5677 5677 5678 5678 5679 5679 5680 5680 5680 5681 5681 5681 5682 5682 5681 5681 5681 5681 5680 5680 5680 5680 5680 5680 5679 5678 5677 5676
5659 5661 5662 5664 5664 5665 5666 5667 5667 5668 5668 5668 5668 5669 5670 5670 5671 5671 5672 5672 5673 5674 5674 5675 5675 5675 5675 5675 5676 5676 5676 5676 5675 5675 5675 5675 5675 5675 5674 5673 5673 5672 5671
5651 5653 5655 5657 5657 5658 5659 5660 5660 5661 5661 5661 5662 5662 5663 5663 5664 5665 5665 5666 5666 5667 5668 5668 5668 5669 5669 5669 5669 5670 5670 5670 5670 5669 5669 5669 5669 5669 5669 5668 5667 5666 5665
5645 5646 5648 5650 5651 5651 5652 5653 5654 5654 5654 5654 5655 5655 5656 5656 5657 5657 5658 5659 5659 5660 5660 5661 5661 5662 5662 5662 5662 5663 5663 5664 5664 5663 5663 5664 5663 5663 5662 5662 5661 5660 5659
5638 5640 5641 5643 5643 5645 5646 5646 5647 5647 5647 5648 5648 5648 5648 5649 5649 5650 5650 5651 5651 5652 5652 5654 5654 5654 5654 5655 5655 5656 5656 5656 5657 5657 5657 5657 5657 5657 5656 5655 5655 5654 5653
5632 5633 5633 5636 5637 5638 5638 5639 5639 5640 5640 5641 5641 5641 5641 5641 5642 5642 5643 5643 5644 5644 5645 5645 5646 5646 5646 5647 5648 5648 5648 5649 5649 5649 5649 5649 5649 5650 5649 5649 5648 5647 5646
5626 5626 5627 5629 5629 5631 5631 5630 5631 5632 5632 5633 5634 5634 5634 5634 5634 5634 5635 5635 5636 5636 5637 5637 5638 5638 5638 5639 5639 5640 5640 5641 5641 5641 5642 5642 5642 5642 5642 5642 5641 5640 5639
5620 5621 5620 5621 5622 5623 5623 5623 5623 5624 5625 5626 5627 5627 5627 5627 5627 5626 5626 5627 5627 5628 5628 5629 5629 5629 5630 5630 5630 5631 5631 5632 5633 5633 5633 5634 5633 5634 5634 5633 5633 5633 5632
5614 5614 5615 5615 5614 5615 5617 5616 5616 5616 5617 5618 5619 5619 5620 5619 5619 5619 5618 5618 5618 5619 5620 5620 5620 5620 5620 5621 5621 5622 5622 5623 5623 5624 5625 5625 5625 5625 5625 5625 5625 5624 5624
5608 5608 5608 5609 5608 5608 5609 5609 5609 5609 5609 5610 5610 5611 5611 5611 5611 5610 5610 5609 5609 5609 5610 5611 5611 5611 5610 5610 5611 5611 5612 5613 5613 5615 5615 5615 5616 5616 5616 5615 5615 5615 5615
5601 5601 5601 5601 5601 5601 5601 5600 5600 5600 5600 5601 5602 5603 5603 5602 5601 5601 5601 5600 5600 5599 5600 5601 5601 5601 5601 5601 5601 5601 5602 5603 5604 5604 5605 5605 5606 5606 5606 5606 5606 5606 5606
5594 5593 5594 5594 5593 5593 5592 5592 5591 5592 5592 5593 5594 5594 5594 5593 5592 5591 5591 5591 5590 5590 5591 5591 5591 5590 5590 5591 5590 5589 5590 5592 5593 5594 5595 5595 5596 5596 5596 5596 5596 5596 5596
5588 5587 5587 5587 5587 5587 5587 5586 5586 5585 5585 5585 5585 5585 5585 5584 5583 5582 5582 5581 5581 5581 5580 5581 5582 5581 5580 5581 5581 5580 5579 5580 5582 5584 5584 5585 5586 5586 5586 5586 5586 5586 5586
5582 5582 5583 5582 5581 5581 5580 5579 5578 5576 5576 5575 5575 5576 5575 5575 5574 5573 5573 5572 5572 5572 5571 5572 5573 5573 5571 5570 5572 5573 5572 5572 5570 5573 5574 5575 5575 5575 5576 5576 5576 5576 5576
5577 5577 5577 5576 5575 5574 5573 5572 5571 5570 5568 5568 5568 5568 5567 5566 5565 5564 5564 5564 5563 5563 5563 5563 5563 5564 5564 5562 5561 5563 5565 5566 5563 5561 5563 5564 5564 5565 5565 5565 5565 5565 5565
5571 5570 5570 5569 5568 5567 5566 5566 5564 5562 5561 5560 5559 5559 5558 5557 5556 5556 5556 5555 5555 5555 5555 5554 5554 5554 5554 5554 5554 5552 5552 5553 5554 5553 5552 5552 5553 5554 5555 5555 5555 5554 5554
5563 5563 5563 5562 5561 5560 5559 5558 5557 5555 5553 5552 5551 5550 5548 5547 5547 5547 5547 5547 5546 5546 5546 5546 5546 5545 5545 5545 5545 5544 5544 5545 5544 5543 5542 5541 5542 5544 5544 5544 5544 5544 5543